Tracking 19909 objects as of 23-Oct-2019
HD Live streaming from Space Station
objects crossing your sky now

LEMUR 1

Track LEMUR 1 now!
10-day predictions
LEMUR 1 is classified as:


NORAD ID: 40044
Int'l Code: 2014-033AL
Perigee: 612.7 km
Apogee: 697.4 km
Inclination: 97.7 °
Period: 97.7 minutes
Semi major axis: 7026 km
RCS: Unknown
Launch date: June 19, 2014
Source: United States (US)
Launch site: Orenburg, Russia (OREN)
aabbcc
Your satellite tracking list
Your tracking list is empty




NASA's NSSDC Master Catalog

Two Line Element Set (TLE):
1 40044U 14033AL  19295.87740248 +.00000124 +00000-0 +25717-4 0  9992
2 40044 097.7375 157.6913 0060281 052.1330 308.5311 14.74134071286767
Source of the keplerian elements: AFSPC